This is the latest recevied weather packets stored in our database for station/object WB5CFT. If no packets are shown the sender has not sent any weather packets the latest 10 day(s).
| Time | Temp. | Humidity | Pressure | Rain* | Wind** | Luminosity | Snow |
|---|---|---|---|---|---|---|---|
| 1776969664 | 30° C | 16% | 1008.3 hPa | 0 mm | - | 825 W/m² | - |
| 1776969360 | 30° C | 16% | 1008.4 hPa | 0 mm | - | 816 W/m² | - |
| 1776969057 | 30° C | 16% | 1008.4 hPa | 0 mm | - | 794 W/m² | - |
| 1776968756 | 30° C | 16% | 1008.5 hPa | 0 mm | - | 816 W/m² | - |
| 1776968452 | 30° C | 15% | 1008.5 hPa | 0 mm | - | 777 W/m² | - |
| 1776968148 | 29.44° C | 15% | 1008.7 hPa | 0 mm | - | 740 W/m² | - |
| 1776967844 | 30° C | 16% | 1008.8 hPa | 0 mm | - | 292 W/m² | - |
| 1776967541 | 28.89° C | 17% | 1008.9 hPa | 0 mm | - | 713 W/m² | - |
| 1776967240 | 29.44° C | 16% | 1009.1 hPa | 0 mm | - | 744 W/m² | - |
| 1776966935 | 29.44° C | 17% | 1009.3 hPa | 0 mm | - | 743 W/m² | - |
| 1776966632 | 28.89° C | 16% | 1009.4 hPa | 0 mm | - | 781 W/m² | - |
| 1776966327 | 28.89° C | 16% | 1009.3 hPa | 0 mm | - | 709 W/m² | - |
| 1776966022 | 28.89° C | 18% | 1009.2 hPa | 0 mm | - | 690 W/m² | - |
| 1776965720 | 28.89° C | 17% | 1009.3 hPa | 0 mm | - | 671 W/m² | - |
| 1776965418 | 28.33° C | 18% | 1009.6 hPa | 0 mm | - | 275 W/m² | - |
| 1776965115 | 28.33° C | 18% | 1009.5 hPa | 0 mm | - | 511 W/m² | - |
| 1776964810 | 28.33° C | 18% | 1009.8 hPa | 0 mm | - | 557 W/m² | - |
| 1776964505 | 28.33° C | 18% | 1009.5 hPa | 0 mm | - | 570 W/m² | - |
| 1776964203 | 27.78° C | 18% | 1010 hPa | 0 mm | - | 538 W/m² | - |
| 1776963899 | 28.33° C | 18% | 1009.9 hPa | 0 mm | - | 599 W/m² | - |
| 1776963597 | 28.33° C | 19% | 1010.1 hPa | 0 mm | - | 580 W/m² | - |
| 1776963294 | 28.33° C | 19% | 1010.2 hPa | 0 mm | - | 629 W/m² | - |
| 1776962990 | 27.78° C | 19% | 1010.3 hPa | 0 mm | - | 626 W/m² | - |
| 1776962687 | 27.78° C | 19% | 1010.3 hPa | 0 mm | - | 576 W/m² | - |
| 1776962385 | 27.22° C | 20% | 1010.4 hPa | 0 mm | - | 166 W/m² | - |
* Rain latest hour (hover to see other rain measurements)
** Current wind speed in m/s (hover to see current wind gust speed)